Location: Azul
(36.7830°S, 59.8500°W)
Time: 08:52:06
(UTC-03:00)

DUCHIFAT 1 - Visible Passes

Search period start: 22 October 2021 00:00
Search period end: 01 November 2021 00:00
Orbit: 583 x 603 km, 98.0° (Epoch: 22 October)

Date Brightness Start Highest point End Pass type
(mag) Time Alt. Az. Time Alt. Az. Time Alt. Az.
24 Oct ? 01:34:52 10° SSE 01:34:52 10° SSE 01:34:55 10° SSE visible
25 Oct ? 01:43:47 12° SSE 01:43:47 12° SSE 01:44:05 10° S visible
26 Oct ? 01:52:43 13° S 01:52:43 13° S 01:53:11 10° S visible
27 Oct ? 02:01:38 14° S 02:01:38 14° S 02:02:14 10° S visible
28 Oct ? 02:10:33 14° S 02:10:33 14° S 02:11:15 10° S visible
29 Oct ? 02:19:29 15° S 02:19:29 15° S 02:20:13 10° S visible
30 Oct ? 02:28:24 15° SSW 02:28:24 15° SSW 02:29:09 10° SSW visible
31 Oct ? 02:37:19 15° SSW 02:37:19 15° SSW 02:38:02 10° SSW visible
